Hourly Weather Roundup
Issued by NWS Central Illinois

Home | Current Version | Previous Version | Text Only | Print | Product List | Glossary On
Versions: 1 2 3 4 5 6 7 8 9 10 11 12 13 14 15 16 17 18 19 20 21 22 23 24 25 26 27 28 29 30 31 32 33 34 35 36 37 38 39 40 41 42 43 44 45 46 47 48 49 50
096
NZUS43 KILX 271210
HWRILX

Area Weather Roundup
National Weather Service Lincoln IL
700 AM CDT SUN MAY 27 2018

NOTE:  "FAIR" indicates few or no clouds below 12,000 feet, with
       no sigificant weather and/or obstructions to visibility.


CITY           SKY/WX    TMP DP  RH WIND       PRES   REMARKS
Bloomington    FAIR      75  70  84 SW6       29.88R
6HR MIN TEMP:  68; 6HR MAX TEMP:  75;

Champaign      FAIR      73  70  90 SW5       29.88R
6HR MIN TEMP:  68; 6HR MAX TEMP:  73;

Danville       FAIR      73  68  84 CALM      29.86R
6HR MIN TEMP:  67; 6HR MAX TEMP:  73;

Decatur        FAIR      72  70  93 SW3       29.88R
6HR MIN TEMP:  70; 6HR MAX TEMP:  75;

Effingham      PTSUNNY   73  71  96 CALM      29.91R
6HR MIN TEMP:  69; 6HR MAX TEMP:  73;

Flora          FAIR      75  71  87 SW3       29.89R
6HR MIN TEMP:  71; 6HR MAX TEMP:  75;

Galesburg      FAIR      71  65  83 E5        29.86R
6HR MIN TEMP:  64; 6HR MAX TEMP:  71;

Jacksonville   SUNNY     74  69  86 S3        29.86R
6HR MIN TEMP:  71; 6HR MAX TEMP:  75;

Lacon          FAIR      71  71  98 CALM      29.85R
6HR MIN TEMP:  65; 6HR MAX TEMP:  72;

Lawrenceville  FAIR      73  68  84 S5        29.89R
6HR MIN TEMP:  71; 6HR MAX TEMP:  75;

Litchfield     PTSUNNY   70  67  90 S5        29.89R
6HR MIN TEMP:  68; 6HR MAX TEMP:  76; 6HR PCP:  0.22;

$$


CITY           SKY/WX    TMP DP  RH WIND       PRES   REMARKS
Lincoln        FAIR      73  72  96 CALM      29.87R
6HR MIN TEMP:  69; 6HR MAX TEMP:  76;

Macomb         SUNNY     67  66  96 CALM      29.88R
6HR MIN TEMP:  63; 6HR MAX TEMP:  68;

Mattoon        FAIR      74  70  87 SW8       29.87R
6HR MIN TEMP:  72; 6HR MAX TEMP:  77;

Mt Carmel AP   FAIR      72  69  89 CALM      29.89R
6HR MIN TEMP:  69; 6HR MAX TEMP:  75;

Olney-Noble AP FAIR      72  70  92 S3        29.90R
Paris AP       FAIR      74  69  85 CALM      29.89R
6HR MIN TEMP:  68; 6HR MAX TEMP:  74;

Peoria         FAIR      73  70  90 CALM      29.86R
6HR MIN TEMP:  68; 6HR MAX TEMP:  74;

Pontiac        FAIR      74  72  93 CALM      29.88R
6HR MIN TEMP:  69; 6HR MAX TEMP:  74;

Rantoul        FAIR      74  72  93 CALM      29.88R
6HR MIN TEMP:  71; 6HR MAX TEMP:  75;

Robinson       FAIR      71  70  95 S3        29.90R
6HR MIN TEMP:  66; 6HR MAX TEMP:  71;

Springfield    FAIR      75  69  81 CALM      29.87R
6HR MIN TEMP:  71; 6HR MAX TEMP:  78;

Taylorville    FAIR      72  69  90 S3        29.88R
6HR MIN TEMP:  69; 6HR MAX TEMP:  75;

$$

...REGIONAL REPORTS...


CITY           SKY/WX    TMP DP  RH WIND       PRES   REMARKS
Chicago O`Hare FAIR      75  67  76 SW3       29.85R
Kankakee       FAIR      71  65  81 CALM      29.87S
La Salle       FAIR      73  71  91 CALM      29.87R FOG
Moline         FAIR      71  66  84 E5        29.83R
Mount Sterling SUNNY     73  69  87 SW5       29.86R
Mount Vernon   FAIR      73  71  93 S3        29.89S
Pittsfield     SUNNY     74  72  91 CALM      29.88R
Quincy         SUNNY     74  69  85 S5        29.86R
Rockford       FAIR      68  65  90 CALM      29.86R
$$


CITY           SKY/WX    TMP DP  RH WIND       PRES   REMARKS
Burlington     SUNNY     72  68  87 CALM      29.83S
Cedar Rapids   FAIR      72  68  87 S6        29.82R
Des Moines     MOSUNNY   74  69  85 CALM      29.81R
Kirksville     SUNNY     73  71  93 MISG      29.87R
Ottumwa        SUNNY     73  69  87 S5        29.83R
St Louis       PTSUNNY   74  70  87 SW3       29.89R
$$


CITY           SKY/WX    TMP DP  RH WIND       PRES   REMARKS
Terre Haute    FAIR      74  69  85 S3        29.89R
Evansville     FAIR      73  72  96 CALM      29.91R
Indianapolis   PTSUNNY   72  68  87 SW7       29.90R
Lafayette      FAIR      67  67 100 CALM      29.88R
Madison        PTSUNNY   73  66  78 CALM      29.84R
Milwaukee      FAIR      77  64  64 W3        29.84R
$$






USA.gov is the U.S. government's official web portal to all federal, state and local government web resources and services.